loading
|

THOR ABLESTAR DEB, 3124

Orbit data source: Space-Track

THOR ABLESTAR DEB, 3124 is space debris in LEO originally from a launch on Thu, 29 Jun 1961 UTC launched from the Air Force Eastern Test Range (AFETR). Debris objects in space refer to the collection of defunct objects orbiting the Earth. Examples of debris include non-operational satellites, rocket bodies, and fragments generated from explosions, collisions, or faulty payload assembly.

Loading next visibility...
Next conjunction unknown
Loading greatness...
THOR ABLESTAR DEB details
Identifier
3124, 1961-015HX
Orbit
LEO
Last TLE update20 hours ago
Origin
Flag of USUSAF SSD (US)
ManufacturerUnknown
MissionSpacecraft
Bus & MotorUnknown bus, Unknown motor
MassUnknown
Launch date (UTC)
1961-06-29 (63 years ago)
Launch vehicleUnknown
Launch site
Air Force Eastern Test Range (AFETR)
Object type
Payload
Rocket body
Debris
Shape & HBRUnknown
Radar Cross SectionSmall (<0.1 m²)

Expand to show TLE details & history

TLE from 20 hours ago
0 THOR ABLESTAR DEB
1 03124U 61015HX  24285.19540004  .00030189  00000-0  31120-1 0  9996
2 03124  66.9844 248.7960 0331260 148.7145 213.4105 13.54414821 85877
Epoch: 2024-10-11T04:41Z
Definitive object data (Epoch: 2024-10-11T04:41:22.563Z)
Latitude-0.00004°
Longitude158.18289°
Altitude1,266.086 km
Speed7.121 km/s
True Right ascension16h 35m 11s
True Declination0° 00' 00"
Sunlit
Object was in daylight at TLE epoch
Predictive object data (real-time)
Latitude54.69909°
Longitude-60.36334°
Altitude849.778 km
Speed7.54 km/s
Apparent Right ascension04h 49m 39s
Apparent Declination14° 13' 58"
Sunlit
Object is in full shadow
Predictive observer data (real-time)
Local Sidereal Time19:09:37
Azimuth38.528° NE
Elevation-26.826°
Doppler factor1
Orbital elements
Apogee1,300.67 km
Perigee808.246 km
Semi-major axis7,432.595 km
Eccentricity0.033126
Inclination66.9844°
RAAN248.796°
Arg. of periapsis148.7145°
True anomaly211.39065°
Mean anomaly213.4105°
Eccentric anomaly212.39369°
Mean motion3.38713 °/min
BSTAR0.03112
Period106.28 mins
No data available

THOR ABLESTAR DEB Visibility forecast

Observer location: 39.9160978°, -105.1181434

Span
Click to sort rows by Start time (UTC) header in descending order
Start Az.
Max El. time (UTC)
Max El. Az.
Max El.
End time (UTC)
End Az.
10 mins2024-10-12 07:49:43.294Z343.519° N2024-10-12 07:54:43.294Z49.47° ENE34.134°2024-10-12 07:59:43.294Z124.853° SE
7 mins2024-10-12 09:40:43.294Z295.425° NW2024-10-12 09:43:43.294Z253.706° W22.26°2024-10-12 09:47:43.294Z202.588° SW
8 mins2024-10-12 21:34:43.294Z139.154° SSE2024-10-12 21:38:43.294Z100.945° ESE18.847°2024-10-12 21:42:43.294Z63.597° ENE
11 mins2024-10-12 23:21:43.294Z215.59° SW2024-10-12 23:26:43.294Z265.242° W43.752°2024-10-12 23:32:43.294Z24.55° NE